GEFSNE_850_meantemp_000.txt.gz
Temperature
3 4 4 5 5 7 8 8 8 8 8 8 8 8 9 9 8 8 8 9 10 10 10 10 10 10 10 10 10 10 10 10 10 10 10 10 10 10
2 3 4 4 5 7 8 8 8 8 8 8 8 8 8 8 8 8 8 8 9 9 9 9 9 9 9 9 9 9 9 9 9 9 9 9 9 9
1 2 3 4 5 5 6 7 7 7 7 7 7 8 8 8 7 7 8 8 8 8 8 8 8 8 8 8 8 8 8 8 8 8 8 8 8 8
1 2 2 2 2 3 5 6 6 6 6 7 7 7 7 7 7 7 7 7 7 7 7 7 7 7 7 7 7 7 7 7 7 7 7 7 8 8
-0 0 0 0 1 3 4 5 6 6 6 6 6 6 7 7 7 7 6 7 7 7 7 7 7 7 7 7 7 6 6 6 6 7 7 7 6 6
-1 -1 -1 -1 0 1 2 2 3 5 5 5 5 5 6 7 7 7 6 6 7 6 6 6 6 6 6 6 6 6 6 6 6 5 5 5 5 6
-4 -3 -2 -1 0 0 1 1 1 2 3 3 3 4 5 6 6 6 6 6 6 6 6 5 5 5 5 5 5 6 5 5 5 5 5 5 5 5
-5 -5 -4 -2 -2 -1 -1 -1 0 1 1 1 2 3 3 4 5 5 5 6 5 5 5 5 4 5 5 5 4 5 5 4 4 4 4 4 4 4
-6 -6 -5 -4 -4 -3 -2 -2 -2 -1 -0 0 1 1 2 2 3 3 3 4 4 4 4 4 3 3 4 4 3 4 4 4 3 3 3 3 3 3
-7 -7 -6 -6 -6 -5 -4 -4 -3 -3 -3 -2 -1 -1 -0 -0 1 2 2 2 2 3 3 3 2 2 2 2 3 3 3 3 3 2 2 2 2 2
-8 -8 -8 -8 -8 -7 -6 -5 -5 -5 -5 -4 -4 -4 -3 -2 -1 -0 1 1 1 1 1 1 1 1 1 1 1 1 1 1 1 1 1 1 1 2
-9 -8 -8 -8 -9 -9 -7 -7 -7 -6 -6 -6 -5 -5 -5 -4 -3 -3 -2 -2 -1 -1 -0 -0 -0 -1 -1 -1 -1 -1 -1 -1 -0 -0 0 0 0 1
-10 -9 -9 -9 -9 -10 -9 -9 -9 -9 -8 -8 -7 -7 -7 -6 -5 -5 -4 -4 -4 -3 -3 -3 -2 -2 -2 -3 -3 -3 -3 -2 -2 -1 -1 -1 -0 0
-10 -10 -9 -10 -11 -11 -10 -10 -10 -10 -9 -9 -8 -8 -8 -8 -7 -6 -6 -5 -5 -5 -5 -5 -5 -4 -4 -5 -4 -4 -4 -3 -3 -2 -2 -1 -1 -1
-10 -10 -11 -10 -11 -11 -11 -10 -10 -10 -10 -10 -10 -9 -9 -9 -9 -8 -8 -7 -7 -7 -7 -7 -7 -7 -7 -6 -5 -4 -4 -4 -3 -3 -2 -2 -2 -2
-11 -11 -12 -12 -12 -12 -12 -12 -11 -11 -11 -11 -11 -11 -11 -10 -10 -9 -9 -9 -8 -8 -8 -7 -7 -7 -7 -6 -5 -5 -5 -5 -4 -4 -4 -4 -4 -3
-12 -12 -12 -12 -12 -12 -13 -13 -13 -13 -12 -12 -12 -12 -11 -11 -11 -10 -10 -10 -9 -9 -9 -8 -8 -7 -7 -7 -6 -6 -6 -6 -6 -5 -5 -5 -4 -4
-13 -14 -14 -13 -13 -14 -14 -14 -14 -14 -14 -14 -13 -13 -13 -12 -12 -12 -11 -11 -11 -11 -10 -10 -9 -9 -8 -8 -8 -8 -7 -7 -7 -7 -7 -6 -4 -4
-14 -14 -14 -14 -15 -15 -15 -15 -15 -15 -15 -15 -15 -14 -14 -14 -14 -13 -13 -12 -12 -12 -11 -11 -11 -10 -10 -10 -10 -9 -9 -9 -9 -8 -7 -7 -5 -4
-16 -16 -16 -16 -16 -16 -16 -16 -16 -16 -16 -16 -16 -16 -16 -15 -15 -15 -14 -14 -14 -13 -13 -13 -13 -13 -12 -12 -11 -10 -11 -11 -10 -9 -8 -7 -6 -5
-16 -16 -16 -16 -16 -16 -16 -16 -16 -16 -16 -16 -16 -16 -16 -16 -16 -16 -15 -15 -15 -14 -14 -14 -14 -14 -13 -13 -12 -11 -10 -11 -10 -10 -9 -8 -7 -6
-16 -16 -16 -16 -16 -16 -16 -16 -16 -16 -16 -17 -16 -16 -16 -16 -16 -16 -16 -15 -15 -15 -15 -14 -14 -14 -14 -13 -12 -12 -11 -10 -10 -10 -10 -10 -10 -9
-15 -15 -15 -15 -16 -16 -16 -16 -16 -16 -16 -16 -16 -16 -16 -16 -16 -16 -15 -15 -15 -15 -15 -15 -15 -14 -14 -13 -13 -13 -12 -12 -11 -10 -9 -10 -10 -10

GEFSNE_850_meantemp_006.txt.gz
Temperature
-3 -3 -2 -2 -1 0 1 3 4 6 8 9 9 8 10 10 11 11 11 12 12 12 13 13 13 13 13 13 12 12 12 11 11 11 11 11 11 11
-3 -2 -2 -1 -0 1 2 2 3 4 5 7 8 8 9 10 10 10 10 10 11 11 11 12 12 12 12 12 12 11 11 10 10 9 10 10 10 10
-3 -2 -1 -0 0 1 2 2 3 3 4 5 6 7 8 9 9 9 9 9 9 10 10 10 11 11 11 11 11 10 9 9 9 8 8 9 9 9
-4 -2 -1 -1 0 1 1 2 3 3 4 4 5 6 8 8 8 8 8 8 8 8 9 9 9 9 9 9 9 8 8 7 7 6 7 8 8 9
-5 -4 -2 -2 -1 -0 0 1 2 2 3 4 4 5 7 7 7 7 7 7 7 7 8 8 8 8 8 8 7 7 7 6 6 6 7 7 8 8
-6 -5 -4 -3 -2 -1 -0 0 1 2 3 3 3 4 6 7 7 6 6 6 6 6 6 6 7 7 7 7 7 6 6 6 6 6 6 7 7 7
-6 -6 -5 -4 -3 -2 -1 -0 0 1 2 2 3 4 5 5 6 6 6 6 6 5 6 6 6 6 6 6 6 6 6 6 6 6 6 6 6 6
-7 -7 -6 -5 -3 -3 -2 -1 -1 0 1 1 2 3 4 5 5 5 5 6 5 4 5 4 4 4 5 5 5 6 6 6 6 5 5 5 5 5
-8 -7 -7 -6 -5 -4 -3 -2 -2 -1 -0 0 1 1 2 3 4 5 5 5 4 4 4 4 4 4 4 4 5 5 5 5 5 5 5 5 5 5
-8 -8 -8 -7 -6 -5 -4 -3 -3 -3 -2 -1 -1 -0 0 1 2 3 4 5 5 4 4 3 3 3 3 3 3 3 4 4 4 4 4 4 4 4
-8 -8 -8 -8 -8 -7 -6 -5 -5 -5 -5 -4 -2 -1 -1 -0 1 2 3 3 3 3 3 3 2 2 2 2 1 2 2 3 3 3 3 3 3 3
-9 -9 -9 -9 -8 -8 -8 -8 -7 -7 -6 -5 -4 -3 -2 -1 -0 1 1 2 3 2 2 2 2 2 1 0 1 1 2 2 2 2 2 2 2 2
-10 -10 -10 -10 -9 -9 -9 -10 -10 -9 -8 -7 -6 -5 -4 -3 -2 -1 -0 1 1 1 0 1 1 1 1 -0 -0 0 1 1 1 1 1 1 1 1
-10 -11 -11 -10 -10 -10 -10 -10 -10 -10 -9 -9 -8 -7 -7 -6 -6 -5 -4 -3 -1 -1 -1 0 1 1 1 0 -1 -1 -1 -0 -0 -0 0 0 0 1
-12 -12 -12 -11 -11 -11 -11 -11 -10 -10 -10 -10 -10 -10 -9 -9 -8 -8 -7 -5 -4 -4 -3 -2 -1 -1 -0 -0 -1 -2 -2 -2 -2 -1 -1 -1 -0 0
-13 -13 -13 -12 -12 -12 -12 -11 -11 -12 -11 -11 -11 -11 -10 -10 -9 -9 -8 -8 -7 -6 -5 -4 -4 -3 -3 -3 -3 -4 -4 -4 -4 -3 -2 -2 -1 -1
-13 -13 -13 -13 -13 -13 -13 -13 -13 -13 -13 -12 -12 -12 -11 -10 -10 -9 -9 -8 -8 -8 -8 -7 -7 -6 -6 -6 -6 -6 -6 -6 -5 -3 -3 -2 -2 -2
-14 -14 -14 -14 -14 -14 -14 -14 -14 -14 -14 -14 -13 -13 -12 -12 -11 -11 -10 -9 -9 -9 -8 -8 -8 -7 -7 -7 -7 -8 -7 -7 -5 -4 -4 -4 -4 -4
-15 -15 -15 -15 -15 -15 -15 -15 -15 -15 -15 -15 -14 -14 -13 -13 -12 -12 -11 -11 -11 -10 -9 -9 -9 -9 -9 -9 -8 -8 -9 -8 -7 -7 -7 -6 -5 -5
-15 -15 -15 -15 -15 -15 -15 -15 -16 -16 -16 -15 -15 -15 -14 -14 -14 -14 -13 -13 -13 -12 -12 -11 -10 -10 -10 -10 -11 -10 -9 -9 -9 -9 -8 -7 -6 -6
-15 -15 -15 -15 -15 -15 -15 -16 -16 -16 -16 -16 -16 -15 -15 -15 -15 -15 -15 -14 -14 -14 -14 -13 -12 -11 -11 -11 -11 -11 -11 -10 -9 -9 -9 -8 -7 -7
-15 -15 -15 -15 -15 -15 -15 -15 -16 -16 -16 -16 -16 -16 -15 -15 -15 -15 -15 -15 -15 -14 -14 -14 -13 -13 -12 -12 -12 -12 -11 -11 -11 -10 -10 -10 -9 -8
-15 -15 -15 -15 -15 -15 -15 -15 -15 -16 -16 -16 -16 -16 -15 -15 -15 -15 -15 -15 -15 -15 -15 -15 -14 -14 -14 -13 -13 -12 -12 -12 -11 -11 -11 -10 -10 -9

GEFSNE_850_meantemp_012.txt.gz
Temperature
-7 -7 -6 -6 -5 -4 -3 -3 -2 -1 0 3 5 7 8 9 9 10 10 11 11 12 12 12 12 12 13 13 13 14 14 14 13 13 13 13 13 13
-7 -7 -7 -6 -5 -4 -3 -2 -2 -2 -1 1 4 6 7 8 8 9 10 10 11 11 12 12 12 12 13 13 13 13 13 13 13 13 12 12 12 12
-7 -7 -7 -6 -5 -4 -3 -2 -2 -1 -1 0 2 5 6 7 8 8 9 9 10 11 11 12 12 12 13 13 13 13 13 13 13 12 12 11 11 11
-8 -7 -7 -6 -5 -4 -3 -2 -1 -1 -0 0 2 3 5 6 7 8 8 9 9 10 11 11 12 12 12 12 12 12 12 12 12 12 11 11 11 10
-8 -7 -7 -6 -5 -4 -3 -2 -1 -0 0 1 2 3 4 5 6 7 8 8 9 9 10 10 11 12 12 12 12 12 12 12 11 11 11 10 10 9
-8 -7 -7 -7 -6 -4 -3 -2 -1 -1 -0 0 1 2 3 4 5 6 7 7 8 8 8 9 10 10 11 11 11 11 11 11 10 10 10 9 8 8
-8 -8 -8 -7 -7 -5 -4 -3 -2 -1 -1 -0 1 2 3 3 4 5 6 7 7 7 8 8 9 9 9 10 10 10 10 10 9 9 7 7 6 7
-8 -9 -8 -8 -8 -7 -6 -5 -4 -3 -2 -1 0 1 2 2 3 4 5 6 7 7 7 8 8 8 8 8 9 9 9 8 7 6 5 5 5 5
-9 -9 -9 -9 -8 -8 -7 -6 -5 -5 -4 -3 -1 -1 0 1 2 3 4 5 6 7 7 7 7 7 7 6 6 6 6 5 5 5 5 4 4 4
-9 -9 -9 -9 -9 -9 -8 -7 -7 -6 -6 -4 -3 -3 -2 -0 1 3 4 5 6 6 6 6 5 5 5 4 4 5 5 4 4 4 4 4 4 4
-10 -9 -10 -10 -9 -10 -9 -9 -7 -7 -6 -6 -5 -4 -3 -1 0 2 3 4 5 5 5 5 4 4 4 3 3 3 3 3 3 3 3 3 3 3
-10 -10 -10 -10 -10 -10 -10 -10 -9 -8 -7 -5 -4 -3 -2 -1 -0 1 2 3 3 3 4 4 3 3 2 2 2 2 2 2 2 3 3 3 3 3
-12 -11 -11 -11 -11 -11 -11 -11 -11 -9 -8 -7 -6 -5 -4 -3 -2 -1 0 1 2 2 2 3 2 2 2 1 1 1 2 2 2 2 2 2 3 3
-12 -12 -12 -12 -11 -11 -11 -11 -11 -10 -9 -9 -8 -8 -7 -7 -6 -4 -2 -1 0 1 1 2 2 2 2 1 0 1 1 1 1 2 2 2 2 2
-13 -13 -13 -12 -12 -11 -12 -11 -11 -11 -11 -11 -11 -10 -10 -8 -7 -6 -4 -2 -1 -0 0 1 2 2 2 1 0 0 1 1 1 1 1 1 1 1
-13 -13 -13 -13 -13 -13 -12 -12 -12 -12 -12 -12 -12 -11 -10 -9 -8 -7 -6 -4 -2 -2 -1 -0 0 1 1 1 1 0 0 0 0 0 0 0 0 0
-14 -14 -14 -13 -14 -14 -14 -14 -13 -13 -12 -12 -11 -11 -11 -11 -10 -9 -8 -6 -5 -5 -4 -2 -1 -0 -0 -1 -1 -1 -1 -1 -1 -1 -0 -0 -0 -0
-14 -14 -15 -15 -15 -15 -15 -15 -15 -14 -14 -13 -13 -12 -11 -11 -11 -10 -10 -9 -8 -8 -7 -6 -5 -3 -2 -3 -3 -3 -2 -2 -2 -1 -1 -1 -1 -1
-14 -15 -15 -15 -15 -15 -15 -15 -15 -15 -15 -14 -14 -13 -12 -12 -11 -10 -10 -10 -10 -10 -9 -8 -7 -6 -4 -6 -7 -7 -5 -4 -4 -3 -3 -3 -2 -2
-14 -15 -15 -15 -15 -15 -15 -15 -15 -15 -15 -15 -14 -14 -13 -13 -12 -12 -11 -11 -10 -10 -10 -9 -8 -7 -6 -7 -8 -8 -8 -6 -5 -4 -4 -3 -3 -3
-14 -14 -15 -15 -15 -15 -15 -15 -15 -15 -15 -15 -15 -15 -14 -14 -13 -13 -13 -12 -11 -10 -10 -10 -10 -9 -9 -8 -8 -9 -8 -7 -7 -6 -5 -5 -5 -4
-14 -14 -14 -15 -15 -15 -15 -15 -15 -15 -15 -15 -15 -15 -14 -14 -14 -14 -14 -13 -13 -12 -12 -11 -11 -11 -10 -9 -9 -9 -9 -8 -8 -7 -7 -6 -6 -5
-14 -14 -14 -14 -15 -15 -15 -15 -15 -15 -15 -15 -15 -14 -14 -14 -14 -14 -14 -14 -14 -13 -13 -12 -12 -11 -11 -11 -11 -10 -10 -10 -9 -9 -8 -8 -7 -7

GEFSNE_850_meantemp_018.txt.gz
Temperature
-9 -9 -8 -8 -8 -7 -7 -7 -6 -6 -5 -4 -2 0 2 4 6 8 9 10 10 10 11 11 11 12 12 13 13 13 14 14 14 14 14 14 14 14
-9 -9 -8 -8 -8 -7 -7 -7 -6 -6 -5 -4 -4 -2 0 3 5 6 8 9 9 10 10 11 11 12 12 12 13 13 13 13 14 14 14 14 14 14
-9 -9 -8 -8 -8 -7 -7 -6 -6 -5 -5 -4 -4 -3 -1 2 4 5 6 8 9 9 10 10 11 11 12 12 12 12 13 13 13 13 13 13 13 13
-9 -9 -8 -8 -8 -7 -7 -6 -6 -5 -5 -4 -3 -3 -1 0 2 3 5 6 8 8 9 10 11 11 11 12 12 12 12 13 13 13 12 12 12 12
-9 -9 -8 -8 -8 -8 -7 -6 -5 -5 -4 -3 -3 -2 -1 -0 1 2 3 5 7 8 9 9 10 11 11 12 12 12 12 12 13 13 13 12 12 12
-9 -9 -9 -9 -9 -8 -8 -7 -6 -4 -4 -3 -2 -2 -1 -0 0 1 2 4 6 7 8 9 10 11 11 12 12 12 12 12 12 13 13 12 12 11
-9 -9 -9 -9 -9 -9 -8 -8 -7 -5 -4 -3 -2 -1 -1 -0 0 1 2 3 5 6 8 9 10 10 11 11 12 12 12 12 12 12 12 12 12 11
-10 -9 -9 -9 -10 -9 -9 -8 -8 -7 -6 -4 -3 -2 -1 -1 0 1 1 2 4 6 7 8 9 10 10 11 12 12 12 12 12 12 11 11 11 10
-10 -10 -10 -10 -10 -10 -9 -9 -8 -8 -7 -6 -5 -4 -3 -2 -1 1 1 2 3 5 7 7 8 8 9 10 11 11 12 12 11 11 11 10 10 10
-11 -11 -11 -10 -10 -10 -10 -9 -9 -8 -8 -7 -6 -5 -4 -3 -2 -0 1 2 3 5 6 6 7 7 8 8 9 10 10 10 10 10 10 10 9 9
-11 -12 -11 -11 -11 -11 -10 -10 -9 -8 -8 -8 -7 -6 -5 -4 -2 -1 1 2 3 4 5 6 6 7 7 7 8 8 9 9 9 9 9 9 8 7
-12 -12 -12 -12 -12 -11 -11 -11 -11 -9 -8 -7 -7 -6 -5 -3 -3 -1 -0 1 3 4 5 5 6 6 6 6 6 7 8 8 8 8 8 7 6 5
-13 -13 -13 -13 -12 -12 -12 -12 -12 -10 -9 -9 -8 -7 -5 -4 -3 -2 -1 1 2 3 4 5 5 6 6 4 4 5 6 6 6 5 5 4 4 4
-14 -14 -14 -13 -13 -12 -12 -12 -11 -10 -10 -9 -9 -8 -7 -6 -4 -3 -2 -1 1 3 4 5 5 6 6 4 3 3 3 3 3 3 2 2 2 2
-14 -14 -14 -14 -13 -12 -13 -12 -11 -11 -11 -10 -10 -10 -9 -8 -6 -4 -2 -1 0 1 3 4 4 5 6 5 3 2 2 1 1 2 1 1 1 1
-13 -14 -14 -14 -13 -13 -13 -12 -12 -12 -12 -11 -11 -10 -9 -8 -6 -4 -3 -2 -0 0 1 2 3 3 4 5 4 2 2 1 1 1 1 1 0 1
-14 -13 -14 -14 -14 -14 -14 -13 -13 -13 -12 -12 -11 -11 -10 -9 -8 -7 -5 -2 -1 -1 -0 0 1 1 1 2 1 1 1 1 0 0 0 -0 -0 -0
-14 -14 -14 -15 -15 -15 -15 -14 -14 -14 -13 -13 -12 -11 -11 -10 -9 -8 -7 -5 -4 -3 -2 -1 -1 -0 -0 -1 -1 -0 1 0 -0 -0 -0 -0 -0 -0
-14 -14 -14 -15 -15 -15 -15 -15 -15 -14 -14 -13 -13 -12 -12 -11 -10 -9 -9 -8 -7 -6 -5 -3 -2 -1 -2 -4 -4 -2 -1 -0 -1 -1 -1 -0 0 -0
-14 -14 -14 -15 -15 -15 -15 -15 -15 -14 -14 -14 -13 -13 -12 -12 -11 -11 -10 -9 -8 -7 -6 -5 -4 -3 -2 -4 -5 -5 -2 -1 -1 -1 -1 -1 -1 -1
-14 -14 -14 -14 -14 -15 -15 -15 -15 -15 -14 -14 -14 -13 -13 -13 -12 -12 -11 -10 -9 -8 -8 -8 -7 -5 -4 -3 -4 -6 -5 -4 -3 -2 -2 -2 -1 -2
-14 -14 -14 -14 -14 -14 -14 -14 -14 -14 -14 -14 -14 -14 -13 -13 -13 -13 -12 -12 -11 -10 -10 -10 -9 -7 -6 -5 -6 -6 -6 -6 -5 -4 -4 -3 -3 -2
-13 -13 -14 -14 -14 -14 -14 -14 -14 -14 -14 -14 -14 -14 -14 -13 -13 -13 -13 -13 -12 -12 -11 -11 -10 -9 -8 -8 -8 -8 -8 -8 -7 -7 -6 -5 -4 -3

GEFSNE_850_meantemp_024.txt.gz
Temperature
-11 -11 -10 -10 -9 -9 -9 -9 -9 -8 -7 -7 -6 -4 -3 -2 -1 1 3 5 6 7 8 9 10 11 11 12 12 13 13 13 13 13 14 14 14 14
-11 -10 -10 -9 -9 -9 -9 -8 -8 -8 -8 -7 -6 -5 -4 -2 -1 0 2 4 5 6 7 8 9 10 11 11 12 13 13 13 13 13 13 13 14 14
-10 -10 -10 -9 -9 -9 -9 -8 -8 -8 -8 -7 -6 -5 -4 -3 -1 -0 1 4 5 6 7 8 9 10 11 11 12 12 13 13 12 13 13 13 13 13
-10 -10 -10 -9 -9 -9 -9 -9 -9 -8 -8 -8 -6 -5 -4 -2 -2 -0 1 3 5 6 7 8 9 9 10 11 11 12 12 12 13 13 13 13 13 13
-10 -10 -10 -10 -10 -9 -9 -9 -9 -9 -8 -7 -6 -5 -3 -2 -2 -0 1 3 4 6 7 8 8 9 10 10 11 11 12 12 13 12 13 13 13 13
-10 -10 -10 -10 -10 -10 -10 -10 -9 -9 -8 -7 -6 -5 -4 -2 -2 -1 1 2 4 5 7 8 8 9 9 10 11 11 12 12 12 12 13 12 12 12
-10 -10 -10 -11 -10 -11 -10 -10 -10 -10 -9 -8 -6 -5 -4 -3 -2 -1 0 2 4 5 6 7 8 8 9 10 10 11 11 12 12 13 13 12 12 12
-12 -11 -11 -11 -11 -11 -11 -11 -10 -10 -10 -9 -8 -6 -5 -4 -3 -2 -1 1 3 4 5 7 7 8 9 9 10 10 11 11 12 13 13 12 12 12
-12 -12 -12 -12 -11 -11 -11 -11 -10 -10 -10 -10 -9 -7 -6 -5 -4 -2 -1 -0 2 3 4 6 7 7 8 9 10 10 11 11 12 12 13 13 12 12
-13 -13 -13 -12 -11 -11 -11 -11 -11 -11 -10 -10 -9 -8 -7 -6 -4 -3 -2 -1 1 2 3 5 6 7 7 8 9 10 10 11 11 12 12 12 12 11
-13 -13 -13 -13 -12 -12 -12 -11 -11 -11 -10 -10 -9 -8 -7 -6 -5 -3 -2 -1 0 1 3 4 5 6 7 7 8 9 10 10 11 11 12 12 11 11
-14 -14 -13 -13 -13 -12 -13 -12 -12 -11 -10 -9 -8 -8 -7 -6 -5 -3 -2 -2 -1 1 2 3 4 5 6 7 7 8 9 9 10 10 11 11 11 10
-14 -14 -14 -13 -13 -13 -13 -13 -13 -11 -10 -9 -9 -8 -7 -6 -5 -4 -3 -2 -1 0 1 2 3 4 5 6 7 7 8 8 9 9 9 10 10 10
-14 -14 -14 -14 -14 -14 -14 -13 -12 -11 -10 -10 -9 -8 -7 -6 -5 -4 -3 -3 -1 -0 1 1 2 4 5 6 6 7 7 7 8 8 8 9 9 9
-14 -14 -14 -14 -14 -14 -14 -13 -12 -11 -11 -11 -10 -10 -9 -8 -6 -4 -3 -3 -2 -1 0 1 2 3 4 6 6 6 6 6 7 7 7 7 7 8
-14 -14 -14 -14 -14 -14 -14 -13 -13 -13 -12 -11 -11 -10 -9 -8 -6 -4 -3 -2 -2 -1 0 1 2 2 4 5 6 5 5 5 5 6 6 5 5 6
-14 -14 -14 -14 -14 -14 -14 -14 -13 -13 -12 -12 -11 -10 -9 -8 -7 -6 -4 -3 -2 -1 -0 1 1 2 3 3 4 5 5 5 4 4 5 4 3 3
-14 -14 -14 -14 -14 -14 -14 -14 -14 -14 -13 -12 -12 -11 -10 -10 -9 -8 -6 -4 -3 -2 -1 -0 1 2 2 2 2 3 4 4 3 3 4 4 2 1
-13 -13 -14 -14 -14 -14 -14 -14 -14 -14 -13 -13 -12 -12 -11 -11 -10 -9 -8 -6 -5 -3 -2 -1 0 1 1 0 -1 1 2 3 2 2 2 2 2 1
-13 -13 -13 -14 -14 -14 -14 -14 -14 -14 -14 -13 -13 -12 -12 -11 -11 -10 -9 -8 -7 -5 -3 -2 -1 0 1 0 -1 -1 -0 1 2 1 1 -0 -0 -1
-12 -12 -13 -13 -13 -13 -14 -14 -14 -14 -14 -13 -13 -13 -12 -12 -11 -11 -10 -10 -8 -7 -5 -4 -3 -1 -0 -0 -1 -2 -2 -2 -0 1 1 0 -1 -1
-11 -11 -12 -12 -13 -13 -13 -13 -13 -14 -14 -14 -13 -13 -13 -12 -12 -11 -11 -11 -10 -9 -9 -8 -6 -4 -3 -2 -3 -4 -3 -3 -3 -2 -0 1 1 -0
-11 -11 -11 -11 -12 -12 -12 -13 -13 -13 -13 -14 -13 -13 -13 -13 -12 -12 -12 -11 -11 -11 -10 -9 -8 -7 -6 -6 -6 -6 -5 -4 -3 -3 -2 -1 -0 -0

GEFSNE_850_meantemp_030.txt.gz
Temperature
-11 -11 -11 -11 -11 -10 -10 -10 -9 -8 -7 -6 -5 -5 -5 -5 -4 -4 -3 -1 1 3 5 6 7 9 10 11 12 13 13 14 14 14 14 15 15 14
-10 -10 -10 -10 -10 -10 -10 -9 -9 -9 -8 -7 -6 -6 -5 -5 -5 -4 -3 -1 1 3 4 6 7 8 9 10 11 12 12 13 13 14 14 14 14 14
-11 -10 -10 -10 -10 -10 -9 -9 -9 -9 -8 -8 -7 -6 -6 -5 -5 -4 -3 -1 1 3 4 6 7 7 8 10 11 11 12 12 13 13 13 13 13 14
-11 -11 -11 -10 -10 -10 -10 -9 -9 -9 -9 -8 -8 -7 -6 -6 -5 -4 -3 -1 0 2 4 5 6 7 8 9 10 11 11 11 12 12 13 13 13 13
-12 -12 -12 -11 -11 -10 -10 -10 -10 -9 -9 -9 -8 -8 -7 -6 -5 -4 -2 -1 0 2 3 5 6 7 7 8 9 11 11 11 11 12 12 12 12 12
-12 -12 -12 -12 -11 -10 -10 -10 -10 -10 -10 -9 -9 -8 -7 -6 -5 -4 -2 -1 0 1 3 4 6 6 7 8 9 10 11 11 11 12 12 12 12 12
-12 -12 -12 -12 -11 -11 -11 -11 -11 -11 -10 -10 -9 -9 -8 -7 -5 -4 -2 -1 0 1 2 4 5 6 7 7 8 9 11 11 12 12 12 12 12 12
-13 -13 -12 -12 -12 -11 -11 -11 -11 -11 -11 -10 -10 -10 -9 -8 -6 -5 -3 -1 0 1 2 4 5 6 6 7 8 9 10 11 12 12 12 12 12 12
-13 -13 -13 -12 -12 -11 -12 -12 -12 -11 -11 -11 -11 -10 -10 -9 -7 -5 -4 -2 0 1 2 4 5 6 6 7 8 9 10 11 11 12 12 12 12 12
-13 -13 -13 -12 -12 -11 -12 -12 -12 -11 -11 -11 -11 -11 -10 -9 -7 -6 -4 -2 -1 1 2 3 5 5 6 7 7 8 9 10 11 11 12 12 12 12
-12 -13 -13 -12 -12 -12 -12 -12 -12 -11 -11 -11 -11 -10 -9 -8 -7 -5 -4 -3 -1 1 2 3 4 5 6 6 7 8 9 10 11 11 11 12 12 12
-12 -12 -13 -12 -12 -12 -13 -13 -12 -12 -11 -10 -10 -10 -9 -8 -7 -5 -4 -3 -1 0 1 3 4 5 6 6 7 7 8 9 10 11 11 11 11 11
-12 -13 -13 -13 -13 -13 -13 -13 -13 -12 -11 -11 -11 -10 -9 -8 -7 -5 -4 -3 -2 -0 1 2 3 5 6 6 6 7 8 9 9 10 10 11 11 11
-13 -13 -13 -13 -13 -13 -13 -13 -13 -12 -12 -12 -12 -11 -10 -8 -6 -5 -4 -3 -2 -1 0 1 2 4 5 6 6 7 7 8 9 9 10 10 10 10
-13 -13 -13 -13 -13 -13 -14 -13 -13 -13 -12 -12 -12 -12 -11 -9 -7 -5 -4 -3 -2 -1 -0 1 2 3 4 5 6 6 7 8 8 9 9 10 10 10
-12 -13 -13 -13 -13 -13 -13 -13 -13 -13 -13 -13 -12 -12 -10 -9 -7 -5 -4 -3 -2 -1 -1 0 1 2 3 5 5 6 7 7 8 9 9 9 9 9
-12 -12 -13 -13 -13 -13 -13 -13 -13 -13 -13 -13 -12 -11 -10 -9 -8 -6 -4 -3 -3 -2 -1 -0 1 2 3 4 5 6 6 7 7 8 8 8 8 9
-11 -12 -12 -13 -13 -13 -13 -13 -14 -13 -13 -13 -12 -11 -11 -10 -9 -7 -5 -4 -3 -2 -1 -0 0 1 2 3 4 5 6 6 6 7 8 8 7 7
-11 -12 -12 -12 -13 -13 -13 -13 -13 -13 -13 -13 -12 -12 -11 -11 -10 -8 -7 -5 -4 -2 -2 -1 -0 1 2 2 2 3 4 5 5 5 6 6 6 5
-11 -12 -12 -12 -12 -12 -13 -13 -13 -13 -13 -13 -12 -12 -12 -11 -10 -10 -8 -7 -5 -4 -2 -1 -0 0 1 1 1 2 3 4 4 4 4 4 3 3
-11 -11 -11 -11 -11 -12 -12 -12 -12 -13 -13 -13 -13 -12 -12 -11 -11 -10 -10 -8 -7 -5 -3 -2 -1 -1 0 1 1 1 1 1 3 4 3 3 2 1
-11 -11 -11 -11 -11 -11 -11 -12 -12 -12 -12 -13 -12 -12 -12 -12 -11 -11 -10 -9 -8 -7 -5 -4 -3 -2 -1 0 0 -0 -0 -0 0 1 2 3 3 1
-10 -10 -10 -10 -10 -10 -11 -11 -11 -12 -12 -12 -12 -12 -12 -12 -12 -11 -11 -10 -9 -8 -7 -5 -4 -3 -2 -1 -1 -1 -1 -1 -1 0 0 1 2 2

GEFSNE_850_meantemp_036.txt.gz
Temperature
-11 -11 -11 -11 -11 -11 -11 -10 -10 -10 -9 -9 -9 -8 -8 -7 -6 -6 -5 -5 -4 -4 -3 -1 0 2 3 5 7 8 10 11 12 13 13 14 14 14
-11 -11 -11 -11 -11 -11 -11 -11 -10 -10 -10 -9 -9 -9 -8 -8 -7 -6 -6 -5 -5 -4 -3 -2 -0 2 3 5 6 8 9 11 12 13 13 13 14 14
-11 -11 -12 -12 -12 -12 -11 -11 -11 -10 -10 -10 -9 -9 -9 -8 -8 -7 -6 -6 -5 -4 -3 -2 -0 1 3 4 6 7 9 10 11 12 13 13 14 14
-11 -11 -12 -12 -12 -12 -12 -11 -11 -10 -10 -10 -10 -9 -9 -9 -8 -8 -7 -5 -4 -3 -2 -1 -0 1 3 4 5 7 8 10 11 12 13 13 13 14
-11 -11 -12 -12 -12 -12 -11 -11 -11 -10 -10 -11 -10 -10 -10 -9 -9 -8 -7 -6 -4 -3 -2 -1 -0 1 3 4 5 7 8 10 11 12 12 13 13 13
-11 -11 -12 -12 -12 -12 -11 -11 -10 -10 -11 -11 -11 -10 -10 -9 -9 -8 -7 -5 -4 -3 -2 -1 0 1 3 4 6 7 8 9 10 11 12 13 13 13
-10 -11 -11 -12 -11 -11 -11 -11 -10 -11 -11 -11 -11 -11 -11 -10 -10 -9 -8 -6 -4 -3 -2 -1 0 1 3 4 5 7 8 9 10 11 12 12 13 13
-10 -11 -11 -12 -12 -11 -11 -11 -11 -11 -11 -11 -11 -11 -11 -11 -10 -10 -9 -8 -6 -3 -2 -1 0 1 3 4 5 7 8 9 10 11 12 12 13 13
-10 -11 -11 -12 -12 -11 -11 -12 -12 -12 -12 -11 -12 -12 -11 -11 -11 -10 -9 -8 -6 -3 -3 -1 0 1 3 4 5 7 8 9 9 10 11 12 13 13
-11 -11 -11 -12 -12 -11 -11 -12 -12 -12 -12 -12 -12 -12 -11 -11 -11 -10 -10 -8 -5 -3 -3 -2 1 2 3 4 5 7 8 8 9 10 11 11 12 13
-11 -11 -12 -12 -12 -11 -12 -12 -12 -12 -12 -12 -12 -12 -11 -11 -10 -10 -9 -8 -6 -3 -2 -1 1 2 3 4 5 6 7 8 9 10 11 11 12 12
-11 -11 -12 -12 -11 -11 -12 -12 -12 -12 -12 -12 -12 -12 -11 -11 -10 -10 -9 -8 -7 -4 -2 -1 1 2 3 4 5 6 7 8 9 10 11 11 11 11
-11 -11 -12 -12 -11 -12 -12 -12 -12 -12 -13 -13 -12 -12 -12 -11 -10 -9 -8 -7 -6 -5 -2 -1 1 2 4 4 5 6 7 8 9 10 10 11 11 11
-11 -11 -11 -11 -11 -12 -12 -12 -12 -13 -13 -13 -13 -12 -12 -11 -10 -8 -7 -6 -5 -4 -2 -2 -0 2 3 4 5 6 6 8 9 9 10 11 11 11
-11 -11 -11 -11 -12 -12 -12 -12 -13 -13 -13 -13 -13 -12 -12 -11 -9 -8 -6 -5 -4 -3 -2 -2 -1 1 3 4 5 6 6 7 8 9 10 10 10 10
-10 -10 -11 -11 -12 -12 -12 -12 -13 -13 -13 -13 -13 -12 -12 -11 -9 -8 -6 -5 -4 -3 -2 -1 -0 1 3 4 5 6 7 7 8 9 10 10 10 10
-10 -10 -10 -11 -11 -12 -12 -12 -12 -13 -13 -13 -13 -13 -12 -11 -9 -8 -6 -5 -4 -3 -2 -1 -0 1 2 4 5 6 6 7 8 9 9 10 10 10
-10 -10 -11 -11 -11 -12 -12 -12 -12 -13 -13 -13 -13 -13 -12 -11 -10 -8 -7 -5 -4 -3 -2 -1 -0 1 2 3 4 5 6 7 7 8 9 9 10 10
-10 -10 -10 -11 -11 -11 -11 -12 -12 -12 -12 -12 -13 -12 -12 -11 -10 -9 -7 -6 -4 -3 -2 -1 -0 1 2 3 3 4 6 6 7 8 9 9 9 9
-10 -10 -10 -10 -11 -11 -11 -11 -11 -12 -12 -12 -12 -12 -12 -12 -11 -10 -8 -7 -5 -3 -2 -2 -1 -0 1 2 3 4 5 6 7 7 8 8 9 9
-10 -10 -10 -10 -10 -10 -11 -11 -11 -11 -12 -12 -12 -12 -12 -11 -11 -10 -9 -7 -6 -4 -3 -2 -1 -1 0 1 2 3 4 5 6 7 7 8 8 7
-10 -10 -10 -10 -10 -10 -10 -10 -11 -11 -11 -11 -11 -11 -11 -11 -11 -10 -9 -8 -7 -5 -4 -3 -2 -1 0 1 2 2 3 3 5 6 6 7 8 7
-10 -10 -10 -10 -10 -10 -10 -10 -10 -11 -11 -11 -11 -11 -11 -11 -11 -10 -9 -8 -7 -6 -4 -3 -2 -1 -0 0 1 1 2 2 3 4 5 6 7 8

GEFSNE_850_meantemp_042.txt.gz
Temperature
-10 -10 -10 -10 -11 -11 -12 -12 -13 -13 -12 -12 -11 -10 -10 -10 -10 -9 -9 -8 -7 -6 -5 -4 -4 -3 -2 -2 -1 1 3 5 6 8 10 11 12 13
-9 -9 -10 -10 -11 -11 -11 -12 -12 -13 -13 -12 -11 -11 -10 -10 -10 -10 -9 -8 -7 -6 -6 -5 -4 -4 -3 -2 -1 -0 2 4 6 8 9 11 12 12
-9 -9 -10 -10 -11 -11 -11 -12 -12 -12 -13 -12 -11 -11 -10 -10 -10 -9 -9 -8 -7 -6 -6 -5 -5 -4 -4 -3 -2 -1 1 3 5 7 9 10 11 12
-9 -9 -10 -10 -11 -11 -11 -11 -12 -12 -12 -12 -11 -11 -11 -10 -10 -10 -10 -9 -8 -7 -6 -5 -5 -4 -4 -3 -2 -1 1 3 4 6 8 10 11 12
-9 -9 -10 -10 -11 -11 -11 -11 -11 -11 -11 -12 -11 -11 -11 -11 -11 -10 -10 -9 -8 -7 -6 -5 -5 -4 -3 -3 -2 -1 1 3 5 6 8 9 10 11
-9 -9 -10 -10 -11 -11 -11 -11 -11 -11 -11 -11 -11 -11 -11 -11 -11 -11 -11 -9 -8 -7 -6 -5 -5 -4 -3 -2 -1 0 1 2 4 6 7 9 10 11
-9 -9 -10 -11 -11 -11 -11 -11 -11 -11 -11 -11 -11 -12 -12 -12 -12 -11 -11 -10 -9 -7 -6 -5 -5 -4 -3 -2 -1 -0 1 3 4 5 7 9 10 11
-9 -9 -10 -10 -11 -11 -11 -11 -11 -11 -11 -11 -11 -12 -12 -12 -12 -12 -12 -11 -10 -8 -7 -6 -5 -4 -2 -1 -0 1 2 3 4 5 7 8 10 11
-9 -9 -10 -10 -11 -11 -10 -10 -11 -11 -11 -11 -12 -12 -12 -12 -12 -12 -11 -11 -11 -9 -9 -6 -4 -4 -2 -1 -0 1 2 3 4 5 7 8 9 10
-9 -9 -10 -10 -10 -10 -10 -10 -11 -11 -11 -12 -12 -12 -12 -12 -12 -11 -11 -11 -10 -9 -9 -7 -4 -3 -2 -2 -0 1 2 3 4 5 6 8 9 10
-9 -9 -10 -10 -10 -9 -10 -11 -11 -11 -12 -12 -12 -12 -12 -12 -12 -11 -11 -11 -11 -9 -8 -8 -5 -3 -2 -1 -0 1 2 3 4 5 6 8 9 10
-9 -9 -10 -10 -10 -10 -10 -11 -11 -11 -12 -12 -12 -12 -12 -12 -12 -12 -12 -11 -11 -10 -7 -7 -5 -4 -2 -0 0 1 2 3 4 5 6 7 9 10
-9 -10 -10 -10 -10 -10 -11 -11 -11 -11 -12 -12 -13 -12 -12 -12 -12 -12 -11 -11 -11 -9 -7 -7 -5 -4 -3 -1 1 2 2 3 4 5 6 7 8 9
-10 -10 -10 -10 -10 -11 -11 -11 -12 -12 -12 -13 -13 -13 -12 -12 -11 -11 -11 -10 -9 -7 -7 -7 -6 -4 -3 -2 0 2 2 3 4 5 6 7 8 9
-10 -10 -10 -10 -10 -11 -11 -12 -12 -12 -13 -13 -13 -13 -12 -12 -11 -10 -10 -9 -8 -7 -6 -5 -5 -4 -4 -3 -1 1 2 4 4 5 6 7 8 9
-9 -9 -10 -10 -10 -10 -11 -11 -12 -12 -13 -13 -13 -12 -12 -11 -11 -10 -9 -8 -7 -6 -5 -5 -4 -4 -3 -2 -1 1 2 3 4 5 6 7 8 9
-9 -9 -9 -9 -10 -10 -11 -11 -12 -12 -12 -12 -12 -12 -12 -11 -10 -10 -9 -8 -7 -5 -4 -4 -3 -3 -3 -2 -1 1 2 3 5 5 6 7 8 9
-9 -9 -9 -10 -10 -11 -11 -11 -11 -12 -12 -12 -12 -12 -12 -11 -10 -9 -8 -7 -6 -5 -4 -3 -3 -3 -2 -1 -0 1 2 3 5 5 6 7 8 9
-9 -9 -9 -10 -10 -11 -11 -11 -11 -11 -11 -12 -12 -12 -11 -11 -10 -9 -8 -7 -6 -5 -4 -3 -3 -2 -2 -1 1 1 2 4 5 6 7 7 8 9
-8 -9 -9 -10 -10 -10 -11 -11 -11 -11 -11 -11 -11 -11 -11 -11 -10 -9 -8 -7 -6 -5 -4 -3 -2 -2 -1 -0 1 2 3 4 5 6 7 8 8 9
-8 -9 -9 -10 -10 -10 -10 -11 -11 -11 -11 -11 -11 -11 -11 -11 -10 -9 -8 -7 -6 -5 -4 -3 -2 -2 -1 -0 1 2 3 4 5 6 7 8 8 9
-8 -9 -9 -9 -10 -10 -10 -10 -11 -11 -11 -11 -11 -11 -11 -11 -10 -9 -9 -7 -6 -5 -4 -3 -2 -1 -1 0 1 2 3 4 5 6 7 8 9 9
-8 -8 -9 -9 -9 -10 -10 -10 -10 -10 -11 -11 -11 -11 -11 -11 -10 -9 -9 -8 -6 -5 -4 -3 -2 -1 -0 0 1 2 3 4 5 6 7 8 9 10

GEFSNE_850_meantemp_048.txt.gz
Temperature
-7 -8 -8 -8 -9 -9 -9 -10 -12 -12 -11 -11 -11 -11 -11 -11 -10 -11 -10 -10 -10 -10 -9 -9 -8 -7 -6 -5 -4 -3 -2 -0 1 2 3 5 6 8
-7 -8 -8 -8 -8 -9 -9 -10 -11 -12 -12 -11 -12 -11 -11 -11 -11 -11 -10 -11 -10 -10 -10 -9 -8 -7 -6 -5 -5 -4 -3 -2 -0 1 2 4 5 7
-7 -8 -8 -8 -9 -9 -9 -10 -11 -11 -12 -12 -12 -11 -11 -11 -10 -10 -10 -10 -10 -10 -10 -9 -9 -8 -7 -6 -5 -4 -3 -2 -1 0 1 3 4 6
-7 -8 -8 -8 -8 -9 -9 -10 -11 -11 -12 -12 -12 -11 -11 -11 -11 -11 -11 -11 -11 -10 -10 -9 -9 -8 -7 -6 -5 -4 -4 -3 -2 -1 1 2 4 5
-7 -8 -8 -8 -9 -9 -9 -10 -10 -11 -11 -11 -12 -11 -11 -11 -11 -11 -11 -11 -11 -11 -11 -10 -9 -8 -7 -6 -5 -5 -4 -3 -2 -1 -0 1 3 4
-7 -8 -8 -8 -9 -9 -9 -10 -10 -10 -11 -11 -11 -11 -11 -11 -11 -11 -11 -11 -11 -11 -11 -10 -10 -9 -8 -7 -6 -5 -4 -3 -3 -2 -1 1 2 3
-7 -8 -8 -9 -9 -9 -9 -10 -10 -10 -10 -10 -11 -11 -11 -11 -11 -11 -12 -12 -12 -12 -11 -10 -10 -9 -7 -6 -5 -5 -4 -3 -3 -2 -1 0 2 3
-7 -8 -8 -9 -9 -9 -10 -10 -10 -9 -9 -10 -10 -10 -11 -11 -11 -12 -12 -12 -12 -12 -11 -11 -10 -9 -8 -7 -5 -4 -4 -3 -2 -2 -1 0 1 3
-7 -8 -8 -9 -9 -9 -9 -9 -9 -9 -10 -10 -11 -11 -11 -11 -12 -12 -12 -12 -12 -11 -12 -11 -10 -9 -8 -7 -6 -5 -4 -3 -2 -1 -1 0 1 3
-7 -8 -8 -9 -9 -9 -9 -9 -9 -9 -10 -11 -11 -11 -11 -11 -11 -11 -11 -11 -12 -11 -11 -11 -10 -9 -8 -7 -5 -5 -4 -3 -2 -1 -1 0 2 3
-7 -8 -8 -9 -9 -9 -9 -9 -9 -10 -10 -11 -11 -12 -12 -12 -12 -12 -12 -12 -12 -12 -12 -11 -10 -9 -7 -6 -5 -4 -3 -2 -2 -1 -0 0 2 3
-7 -7 -8 -9 -9 -9 -9 -9 -10 -10 -10 -11 -11 -11 -12 -12 -13 -13 -13 -13 -13 -12 -12 -11 -10 -9 -7 -5 -4 -4 -3 -2 -2 -1 -0 1 2 3
-7 -8 -8 -9 -9 -9 -9 -10 -10 -10 -10 -11 -11 -12 -12 -13 -13 -13 -13 -13 -13 -13 -12 -11 -11 -10 -8 -6 -4 -3 -3 -2 -1 -1 0 1 2 3
-8 -8 -8 -9 -9 -10 -10 -10 -10 -11 -11 -11 -12 -12 -12 -12 -12 -12 -12 -12 -12 -12 -11 -11 -11 -10 -10 -8 -6 -3 -2 -2 -1 -0 0 1 2 3
-8 -8 -9 -9 -9 -9 -10 -10 -11 -11 -11 -12 -12 -12 -12 -12 -12 -12 -12 -12 -11 -11 -10 -10 -10 -9 -9 -9 -7 -4 -3 -2 -1 -0 0 1 2 3
-7 -8 -8 -9 -9 -9 -9 -10 -10 -11 -12 -12 -12 -12 -12 -12 -12 -12 -12 -11 -11 -10 -9 -9 -9 -8 -8 -7 -7 -5 -3 -2 -1 -0 0 1 2 3
-8 -8 -8 -8 -9 -9 -9 -10 -10 -11 -11 -11 -12 -12 -12 -12 -11 -11 -11 -11 -11 -10 -9 -8 -8 -8 -7 -7 -6 -5 -3 -2 -1 -0 0 1 2 3
-8 -8 -8 -8 -9 -9 -10 -10 -10 -11 -11 -11 -11 -11 -12 -11 -11 -11 -11 -11 -10 -9 -8 -8 -8 -7 -7 -6 -5 -4 -3 -2 -1 -0 0 1 2 3
-8 -8 -8 -8 -9 -9 -10 -10 -10 -11 -11 -11 -11 -11 -11 -11 -11 -11 -11 -10 -10 -9 -8 -7 -7 -7 -7 -6 -3 -3 -2 -1 -0 0 1 1 2 4
-7 -8 -8 -8 -9 -9 -10 -10 -10 -11 -11 -11 -11 -11 -11 -11 -11 -11 -11 -10 -10 -9 -7 -7 -6 -6 -6 -5 -4 -3 -2 -1 -0 0 1 2 3 4
-7 -8 -8 -8 -9 -9 -10 -10 -10 -11 -11 -11 -11 -11 -11 -11 -11 -11 -10 -10 -10 -9 -7 -6 -5 -5 -5 -5 -4 -3 -2 -1 0 1 1 2 3 4
-7 -8 -8 -8 -9 -9 -10 -10 -10 -10 -11 -11 -11 -11 -11 -11 -11 -10 -10 -10 -9 -9 -8 -6 -5 -5 -5 -5 -4 -3 -1 -1 0 1 1 2 3 4
-7 -7 -8 -8 -9 -9 -9 -10 -10 -10 -11 -11 -11 -11 -11 -11 -11 -10 -10 -10 -9 -8 -7 -6 -5 -5 -4 -4 -3 -3 -2 -1 0 1 2 3 3 5